Regional Weather Roundup
Issued by NWS Bismarck, ND

Home | Current Version | Previous Version | Text Only | Print | Product List | Glossary On
Versions: 1 2 3 4 5 6 7 8 9 10 11 12 13 14 15 16 17 18 19 20 21 22 23 24 25 26 27 28 29 30 31 32 33 34 35 36 37 38 39 40 41 42 43 44 45 46 47 48 49 50
000
ASUS43 KBIS 310610
RWRBIS

NWR BROADCAST TEXT
NATIONAL WEATHER SERVICE BISMARCK ND
100 AM CDT TUE MAY 31 2016

NOTE: "FAIR" INDICATES FEW OR NO CLOUDS BELOW 12,000 FEET WITH NO
SIGNIFICANT WEATHER AND/OR OBSTRUCTIONS TO VISIBILITY.


CITY           SKY/WX    TMP DP  RH WIND       PRES   REMARKS
WILLISTON      CLOUDY    53  50  89 SW5       29.86F
MINOT          RAIN      58  55  90 N9        29.81F FOG
MINOT AFB      NOT AVBL
BISMARCK       CLOUDY    56  54  93 W14       29.82S
DICKINSON      CLEAR     46  43  89 W13       29.88S
GARRISON         N/A     55  53  93 N6        29.82F
HETTINGER ARPT CLEAR     47  44  90 W12       29.96R
JAMESTOWN      CLOUDY    56  55  97 CALM      29.73F
BEACH          FAIR      43  43 100 W9        29.96F
CARRINGTON     CLOUDY    59  55  88 SE16      29.75F
HAZEN          LGT RAIN  54  54 100 CALM      29.86S
LINTON         CLOUDY    55  55 100 W12G17      N/A
OAKES            N/A    N/A N/A N/A MISG        N/A
RUGBY          RAIN      55  55 100 N12       29.79F
STANLEY        MOCLDY    52  52 100 N10       29.86F
WATFORD CITY   MOCLDY    50  50 100 W12       29.87F
$$

CITY           SKY/WX    TMP DP  RH WIND       PRES   REMARKS
GRAND FORKS    HVY RAIN  59  56  89 E20G29    29.76F FOG
GRAND FORKS AF LGT RAIN  59  57  94 E20G25    29.75F
DEVILS LAKE    RAIN      58  55  90 E12G20    29.74F
FARGO          LGT RAIN  62  58  86 NE5       29.74F
CAVALIER       MOCLDY    63  55  77 E16G23    29.78F
GRAFTON        DRIZZLE   59  59 100 E17G23    29.78F
GWINNER        FAIR      59  57  94 E6        29.72F
LANGDON        CLOUDY    59  55  88 E12       29.79S
ROLLA          LGT RAIN  57  57 100 N8        29.81F
WALHALLA       FAIR      61  57  88 E10G16    29.79F
$$

CITY           SKY/WX    TMP DP  RH WIND       PRES   REMARKS
ABERDEEN       CLOUDY    57  55  93 W5        29.78F
MOBRIDGE       CLOUDY    57  52  83 NW16      29.83S
BUFFALO          N/A     46  40  79 W16       29.93S
RAPID CITY     CLOUDY    52  41  66 NW17      30.04S
GLASGOW        CLOUDY    49  44  83 W12       29.92F
SIDNEY         PTCLDY    49  43  80 W18       29.89F
WOLF POINT     CLOUDY    51  44  77 W12       29.91F
GLENDIVE       MOCLDY    46  41  81 W10       29.97S
MILES CITY     CLOUDY    51  38  60 W21G28    30.01F
BAKER          PTCLDY    45  42  89 W7        29.97F
$$

CITY           SKY/WX    TMP DP  RH WIND       PRES   REMARKS
BILLINGS       PTCLDY    49  37  63 W13       30.14R
GREAT FALLS    CLOUDY    44  38  79 N3        30.22R
REGINA         LGT RAIN  54  52  94 NE9       29.92F
ESTEVAN        LGT RAIN  54  52  94 N13       29.85F
$$





USA.gov is the U.S. government's official web portal to all federal, state and local government web resources and services.